Content
SEND FEEDBACK

Daily
Averages
Monthly
Summary
United States of America

CHESTERFIELD, MISSOURI


Home > North America > United States > Missouri
Elevation: 559 feet     Latitude: 38 41N     Longitude: 090 31W

WEATHER
 
SELECT A DAY
Number of Records: 203,371;   Date Range: 1/1/95 - 7/23/14
 
SHARE

PRINT THIS DATA

[ ← Previous Day ]
WEATHER ALMANAC - MAY 11, 2013
[ Next Day → ]
[ °C ]   °F
Weather ElementAverageHighLow
Temperature59.5 °F71.1 °F (11:51 am)52 °F (11:51 pm)
Dewpoint43 °F51.1 °F (10:51 am)28.9 °F (11:51 pm)
Humidity57.9 %86 % (5:51 am)30 % (5:51 pm)
Barometer30.04 in30.16 in (11:51 pm)29.99 in (11:51 am)
Wind Speed10.4 mph21.9 mph (1:51 pm)
Wind Gust31.1 mph (12:51 pm)
Weather ElementAverage
Visibility9.9 mi
Wind DirectionNW (313 °)

Weather ElementTotal
Precipitation---
Heating Degree Days3.5 (Base 65)
Growing Degree Days11.6 (Base 50)
Averaged from 27 records on May 11, 2013
WEATHER CONDITIONS BREAKOUT
WIND DIRECTION BREAKOUT
WEATHER BY HOUR - MAY 11, 2013
[ °C ]   °F
Local TimeTemperatureDewpointHumidityBarometerVisibilityWind DirectionWind SpeedGust SpeedPrecipitationEventsConditions
1:51 AM55.9 °F48.9 °F77 %30.02 in10.0 miNorth (350°)4.6 mphOvercast
2:51 AM55.9 °F48.9 °F77 %30.02 in10.0 miNorth (350°)4.6 mphOvercast
3:51 AM55.0 °F48.9 °F80 %30.01 in10.0 miNW (320°)4.6 mphOvercast
4:03 AM55.4 °F48.2 °F77 %30.02 in10.0 miNW (320°)4.6 mphOvercast
4:41 AM55.4 °F48.2 °F77 %30.00 in10.0 miNNW (330°)3.5 mphOvercast
4:51 AM54.0 °F48.9 °F83 %30.00 in10.0 miNW (320°)3.5 mphMostly Cloudy
5:51 AM53.1 °F48.9 °F86 %30.00 in10.0 miNW (310°)3.5 mphMostly Cloudy
6:39 AM55.4 °F50.0 °F82 %30.02 in9.0 miWest (280°)4.6 mphMostly Cloudy
6:51 AM55.0 °F50.0 °F83 %30.01 in9.0 miWest (260°)6.9 mphMostly Cloudy
7:33 AM55.4 °F50.0 °F82 %30.03 in10.0 miWest (260°)9.2 mphScattered Clouds
7:51 AM57.0 °F48.9 °F74 %30.02 in10.0 miWest (280°)6.9 mphPartly Cloudy
8:51 AM60.1 °F50.0 °F69 %30.03 in10.0 miWest (280°)9.2 mphScattered Clouds
9:51 AM63.0 °F50.0 °F63 %30.01 in10.0 miWSW (250°)9.2 mphPartly Cloudy
10:51 AM66.0 °F51.1 °F59 %30.00 in10.0 miSW (230°)12.7 mphPartly Cloudy
11:51 AM71.1 °F50.0 °F47 %29.99 in10.0 miWest (280°)12.7 mph25.3 mphPartly Cloudy
12:51 PM68.0 °F43.0 °F40 %30.00 in10.0 miNNW (330°)19.6 mph31.1 mphMostly Cloudy
1:51 PM70.0 °F46.0 °F42 %30.01 in10.0 miNNW (330°)21.9 mph26.5 mphScattered Clouds
2:51 PM68.0 °F41.0 °F37 %30.02 in10.0 miNorth (350°)17.3 mph25.3 mphPartly Cloudy
3:51 PM66.9 °F37.9 °F34 %30.03 in10.0 miNNW (340°)17.3 mph26.5 mphPartly Cloudy
4:51 PM64.9 °F34.0 °F32 %30.05 in10.0 miNNW (340°)19.6 mph29.9 mphPartly Cloudy
5:51 PM64.0 °F32.0 °F30 %30.08 in10.0 miNW (320°)18.4 mph24.2 mphPartly Cloudy
6:51 PM61.0 °F30.9 °F32 %30.09 in10.0 miNNW (340°)18.4 mph26.5 mphPartly Cloudy
7:51 PM59.0 °F32.0 °F36 %30.10 in10.0 miNNW (340°)13.8 mph23.0 mphPartly Cloudy
8:51 PM57.0 °F30.9 °F37 %30.12 in10.0 miNNW (340°)9.2 mph18.4 mphPartly Cloudy
9:51 PM54.0 °F32.0 °F43 %30.14 in10.0 miNNW (340°)8.1 mphClear
10:51 PM53.1 °F30.9 °F43 %30.15 in10.0 miNW (320°)5.8 mphClear
11:51 PM52.0 °F28.9 °F41 %30.16 in10.0 miNNW (340°)10.4 mphClear
Hourly data recorded from KSTL, located miles away from Chesterfield, Missouri







STORIES FROM OUR PARTNERS